Location: Aula-Vintri
(58.3875°N, 22.4322°E)
Time: 00:49:44
(UTC+00:00)

In-Cosmos 22 Rocket - Pass Details

Date: 13 October 2019
Orbit: 790 x 888 km, 81.2° (Epoch: 11 November)

Event Time Altitude Azimuth Distance (km) Brightness Sun altitude
Rises 18:39:12 0° 343° (NNW) 3,305 7.9 -24.8°
Reaches altitude 10° 18:41:34 10° 341° (NNW) 2,374 7.1 -25.1°
Maximum altitude 18:46:53 70° 259° (W) 853 4.2 -25.7°
Enters shadow 18:48:17 49° 194° (SSW) 1,036 4.5 -25.8°
